DW9294 Saint Petersburg FL US current weather conditions

sailwx.info

Wind from 250 at 2 knots gusting 7

Air temperature 27.8° C
Dewpoint 14.4° C

Last reported at 2020-Apr-04 21:03 UTC.
Time now 2020-Apr-04 21:57 UTC

Location: N 27°49' W 082°38'.
View on Google Maps.

See reports from other nearby stations

  
Tides and Currents Weather Stations Pressure Air Temp Water Temp Dewpoint Dewpoint Depression Visibility Wind Speed Wind Dir Waves Ship Positions
date/time (UTC)wind fromknots sea level pressurealtimeterstation pressurevisibilityair tempwater tempwave heightnotes
2020-Apr-04 21:03 250 2 gusting 7 27.8
2020-Apr-04 20:58 243 0 gusting 5 27.8
2020-Apr-04 20:53 350 0 gusting 4 27.8
2020-Apr-04 20:48 291 0 gusting 4 27.8
2020-Apr-04 20:43 255 27.8
2020-Apr-04 20:38 257 0 gusting 5 27.8
2020-Apr-04 20:33 237 0 gusting 7 27.8
2020-Apr-04 20:28 261 0 gusting 7 27.8
2020-Apr-04 20:23 247 0 gusting 8 28.3
2020-Apr-04 20:18 330 0 gusting 8 27.8
2020-Apr-04 20:13 226 1 gusting 8 28.3
2020-Apr-04 20:08 266 1 gusting 7 28.3
2020-Apr-04 20:03 328 2 gusting 6 28.3
2020-Apr-04 19:58 252 0 gusting 6 28.9
2020-Apr-04 19:53 300 1 gusting 7 28.3
2020-Apr-04 19:48 246 2 gusting 7 28.3
2020-Apr-04 19:43 267 1 gusting 7 28.3
2020-Apr-04 19:38 293 1 gusting 7 28.3
2020-Apr-04 19:33 229 1 gusting 6 28.3
2020-Apr-04 19:28 283 1 gusting 6 28.3
2020-Apr-04 19:23 279 0 gusting 6 28.3
2020-Apr-04 19:18 254 3 gusting 6 28.3
2020-Apr-04 19:13 259 4 gusting 7 28.3
2020-Apr-04 19:08 260 0 gusting 7 28.3
2020-Apr-04 19:03 271 1 gusting 7 28.9
2020-Apr-04 18:58 244 2 gusting 6 28.9
2020-Apr-04 18:53 304 1 gusting 7 28.9
2020-Apr-04 18:48 275 1 gusting 10 28.9
2020-Apr-04 18:43 222 3 gusting 10 28.9
2020-Apr-04 18:38 255 1 gusting 6 29.4
2020-Apr-04 18:33 251 1 gusting 6 29.4
2020-Apr-04 18:28 248 3 gusting 6 29.4
2020-Apr-04 18:23 223 0 gusting 5 29.4
2020-Apr-04 18:18 198 1 gusting 5 29.4
2020-Apr-04 18:13 183 0 gusting 7 29.4
2020-Apr-04 18:08 165 0 gusting 7 28.9
2020-Apr-04 18:03 146 4 gusting 7 28.9
2020-Apr-04 17:58 145 1 gusting 6 28.9
2020-Apr-04 17:53 197 0 gusting 4 28.9
2020-Apr-04 17:48 191 0 gusting 4 28.9
2020-Apr-04 17:43 137 0 gusting 4 28.9
2020-Apr-04 17:38 174 0 gusting 5 28.3
2020-Apr-04 17:33 128 1 gusting 5 28.3
2020-Apr-04 17:28 171 0 gusting 5 27.8
2020-Apr-04 17:23 189 1 gusting 6 27.8
2020-Apr-04 17:18 168 2 gusting 6 27.2
2020-Apr-04 17:13 177 2 gusting 6 27.2
2020-Apr-04 17:08 180 1 gusting 6 27.2
2020-Apr-04 17:03 180 3 gusting 7 27.2
2020-Apr-04 16:58 163 2 gusting 7 27.2
2020-Apr-04 16:53 151 1 gusting 4 27.2
2020-Apr-04 16:48 144 0 gusting 4 27.2
2020-Apr-04 16:43 258 0 gusting 5 26.7
2020-Apr-04 16:38 339 26.7
2020-Apr-04 16:33 075 0 gusting 5 26.7
2020-Apr-04 16:28 285 0 gusting 6 26.1
2020-Apr-04 16:23 353 0 gusting 7 26.1
2020-Apr-04 16:18 335 2 gusting 7 26.1
2020-Apr-04 16:13 270 26.1
2020-Apr-04 16:08 296 1 gusting 6 25.6
2020-Apr-04 16:03 295 1 gusting 6 25.6
2020-Apr-04 15:58 024 0 gusting 6 25.6
2020-Apr-04 15:53 005 1 gusting 6 25.0
2020-Apr-04 15:48 205 25.0
2020-Apr-04 15:43 247 0 gusting 4 25.0
2020-Apr-04 15:38 030 24.4
2020-Apr-04 15:33 030 1 gusting 6 24.4
2020-Apr-04 15:28 299 0 gusting 5 24.4
2020-Apr-04 15:23 248 24.4
2020-Apr-04 15:18 24.4
2020-Apr-04 15:13 23.9
2020-Apr-04 15:08 343 23.9
2020-Apr-04 15:03 057 23.9
2020-Apr-04 14:58 067 0 gusting 4 23.3
2020-Apr-04 14:53 227 23.3
2020-Apr-04 14:48 024 23.3
2020-Apr-04 14:43 025 1 gusting 2 22.8
2020-Apr-04 14:38 339 22.8
2020-Apr-04 14:33 339 22.2
2020-Apr-04 14:28 339 22.2
2020-Apr-04 14:23 339 22.2
2020-Apr-04 14:18 339 22.2
2020-Apr-04 14:13 339 0 gusting 4 21.7
2020-Apr-04 14:08 011 21.7
2020-Apr-04 14:03 041 21.7
2020-Apr-04 13:58 080 21.1
2020-Apr-04 13:53 016 0 gusting 4 21.1
2020-Apr-04 13:48 056 0 gusting 4 18.9
2020-Apr-04 13:43 309 18.9
2020-Apr-04 13:38 309 0 gusting 2 19.4
2020-Apr-04 13:33 044 18.9
2020-Apr-04 13:28 044 18.9
2020-Apr-04 13:23 044 18.9
2020-Apr-04 13:18 080 18.9
2020-Apr-04 13:13 096 18.3
2020-Apr-04 13:08 066 16.1
2020-Apr-04 13:03 044 0 gusting 2 16.1
2020-Apr-04 12:58 036 16.1
2020-Apr-04 12:53 343 15.6
2020-Apr-04 12:48 343 16.1
2020-Apr-04 12:43 343 15.6
2020-Apr-04 12:38 343 15.6
2020-Apr-04 12:33 343 15.0
2020-Apr-04 12:28 343 15.0
2020-Apr-04 12:23 343 15.0
2020-Apr-04 12:18 343 14.4
2020-Apr-04 12:13 343 15.0
2020-Apr-04 12:08 343 15.0
2020-Apr-04 12:03 343 15.0
2020-Apr-04 11:58 343 15.0
2020-Apr-04 11:53 343 15.0
2020-Apr-04 11:48 343 15.6
2020-Apr-04 11:43 343 15.6
2020-Apr-04 11:38 343 15.6
2020-Apr-04 11:33 343 15.6
2020-Apr-04 11:28 343 15.6
2020-Apr-04 11:23 343 15.6
2020-Apr-04 11:18 343 15.6
2020-Apr-04 11:13 343 16.1
2020-Apr-04 11:08 343 16.1
2020-Apr-04 11:03 343 16.1
2020-Apr-04 10:58 343 16.1
2020-Apr-04 10:53 343 16.1
2020-Apr-04 10:48 343 16.1
2020-Apr-04 10:43 343 16.7
2020-Apr-04 10:38 343 16.7
2020-Apr-04 10:33 343 16.7
2020-Apr-04 10:28 343 16.7
2020-Apr-04 10:23 343 16.7
2020-Apr-04 10:18 343 16.7
2020-Apr-04 10:13 343 16.7
2020-Apr-04 10:08 343 16.7
2020-Apr-04 10:03 343 16.7
2020-Apr-04 09:58 343 16.7
2020-Apr-04 09:53 343 16.7
2020-Apr-04 09:48 343 16.7
2020-Apr-04 09:43 343 16.7
2020-Apr-04 09:38 343 16.7
2020-Apr-04 09:33 343 17.2
2020-Apr-04 09:28 343 17.2
2020-Apr-04 09:23 343 17.2
2020-Apr-04 09:18 343 17.2
2020-Apr-04 09:13 343 17.2
2020-Apr-04 09:08 343 17.2
2020-Apr-04 09:03 343 17.2
2020-Apr-04 08:58 343 17.2
2020-Apr-04 08:53 343 17.2
2020-Apr-04 08:48 343 17.2
2020-Apr-04 08:43 343 17.2
2020-Apr-04 08:38 343 17.2
2020-Apr-04 08:33 343 17.8
2020-Apr-04 08:28 343 17.8
2020-Apr-04 08:23 343 17.8
2020-Apr-04 08:18 343 17.8
2020-Apr-04 08:13 343 17.8
2020-Apr-04 08:08 343 17.8
2020-Apr-04 08:03 343 17.8
2020-Apr-04 07:58 343 17.8
2020-Apr-04 07:53 343 17.8
2020-Apr-04 07:48 343 17.8
2020-Apr-04 07:43 343 17.8
2020-Apr-04 07:38 343 18.3
2020-Apr-04 07:33 343 18.3
2020-Apr-04 07:28 343 17.8
2020-Apr-04 07:23 343 17.8
2020-Apr-04 07:18 343 17.8
2020-Apr-04 07:13 343 17.8
2020-Apr-04 07:08 343 18.3
2020-Apr-04 07:03 343 18.3
2020-Apr-04 06:58 343 18.3
2020-Apr-04 06:53 343 18.3
2020-Apr-04 06:48 343 18.3
2020-Apr-04 06:43 343 18.3
2020-Apr-04 06:38 343 18.3
2020-Apr-04 06:33 343 18.3
2020-Apr-04 06:28 343 18.3
2020-Apr-04 06:23 343 18.9
2020-Apr-04 06:18 343 18.9
2020-Apr-04 06:13 343 18.9
2020-Apr-04 06:08 343 18.9
2020-Apr-04 06:04 343 18.9
2020-Apr-04 05:58 343 18.9
2020-Apr-04 05:53 343 18.9
2020-Apr-04 05:48 343 18.9
2020-Apr-04 05:43 343 19.4
2020-Apr-04 05:38 343 19.4
2020-Apr-04 05:33 343 19.4
2020-Apr-04 05:28 343 19.4
2020-Apr-04 05:23 343 19.4
2020-Apr-04 05:18 343 19.4
2020-Apr-04 05:13 343 19.4
2020-Apr-04 05:08 343 19.4
2020-Apr-04 05:03 343 20.0
2020-Apr-04 04:58 343 20.0
2020-Apr-04 04:53 343 20.0
2020-Apr-04 04:48 343 20.0
2020-Apr-04 04:43 343 20.0
2020-Apr-04 04:38 343 20.0
2020-Apr-04 04:33 343 20.0
2020-Apr-04 04:28 343 20.0
2020-Apr-04 04:23 343 20.0
2020-Apr-04 04:18 343 20.0
2020-Apr-04 04:13 343 20.0
2020-Apr-04 04:08 343 20.0
2020-Apr-04 04:03 343 20.0
2020-Apr-04 03:58 343 20.0
2020-Apr-04 03:53 343 20.0
2020-Apr-04 03:48 343 20.6
2020-Apr-04 03:43 343 20.6
2020-Apr-04 03:38 343 20.6
2020-Apr-04 03:33 343 20.6
2020-Apr-04 03:28 343 20.6
2020-Apr-04 03:23 343 20.6
2020-Apr-04 03:18 343 20.6
2020-Apr-04 03:13 343 20.6
2020-Apr-04 03:08 343 20.6
2020-Apr-04 03:03 343 20.6
2020-Apr-04 02:58 343 20.6
2020-Apr-04 02:53 343 20.6
2020-Apr-04 02:48 343 20.6
2020-Apr-04 02:43 343 20.6
2020-Apr-04 02:38 343 20.6
2020-Apr-04 02:33 343 20.6
2020-Apr-04 02:28 343 20.6
2020-Apr-04 02:23 343 21.1
2020-Apr-04 02:18 343 21.1
2020-Apr-04 02:13 343 21.1
2020-Apr-04 02:08 343 21.1
2020-Apr-04 02:03 343 21.1
2020-Apr-04 01:58 343 19.4
2020-Apr-04 01:53 343 19.4
2020-Apr-04 01:48 343 20.0
2020-Apr-04 01:43 343 19.4
2020-Apr-04 01:38 343 20.6
2020-Apr-04 01:33 343 20.0
2020-Apr-04 01:28 343 20.0
2020-Apr-04 01:23 343 20.0
2020-Apr-04 01:18 343 19.4
2020-Apr-04 01:13 343 20.0
2020-Apr-04 01:08 343 20.0
2020-Apr-04 01:03 343 20.0
2020-Apr-04 00:58 343 20.0
2020-Apr-04 00:53 343 19.4
2020-Apr-04 00:48 343 20.6
2020-Apr-04 00:43 347 20.6
2020-Apr-04 00:38 347 21.1
2020-Apr-04 00:33 347 21.1
2020-Apr-04 00:28 349 21.1
2020-Apr-04 00:23 334 20.6
2020-Apr-04 00:18 332 21.1
2020-Apr-04 00:13 275 0 gusting 6 20.6
2020-Apr-04 00:08 300 1 gusting 5 21.1
2020-Apr-04 00:03 311 1 gusting 5 21.1
2020-Apr-03 23:58 342 0 gusting 5 21.1
2020-Apr-03 23:53 353 0 gusting 4 20.6
2020-Apr-03 23:48 21.1
2020-Apr-03 23:43 337 21.7
2020-Apr-03 23:38 329 0 gusting 6 22.2
2020-Apr-03 23:33 359 1 gusting 6 21.7
2020-Apr-03 23:28 005 1 gusting 7 22.8
2020-Apr-03 23:23 340 22.2
2020-Apr-03 23:18 331 0 gusting 7 22.8
2020-Apr-03 23:13 343 2 gusting 10 22.8
2020-Apr-03 23:08 326 2 gusting 10 23.3
2020-Apr-03 23:03 330 5 gusting 10 23.3
2020-Apr-03 22:58 327 4 gusting 7 23.3
2020-Apr-03 22:53 331 3 gusting 7 23.3
2020-Apr-03 22:48 305 1 gusting 7 23.9
2020-Apr-03 22:43 342 0 gusting 8 23.9
2020-Apr-03 22:38 342 2 gusting 8 23.9
2020-Apr-03 22:33 325 4 gusting 8 23.9
2020-Apr-03 22:28 320 1 gusting 8 24.4
2020-Apr-03 22:23 340 1 gusting 8 24.4
2020-Apr-03 22:18 339 4 gusting 8 25.0
2020-Apr-03 22:13 340 4 gusting 8 25.0
2020-Apr-03 22:08 330 4 gusting 7 25.0
2020-Apr-03 22:03 324 2 gusting 8 25.0
2020-Apr-03 21:58 346 1 gusting 8 25.0
2020-Apr-03 21:53 344 5 gusting 8 24.4
2020-Apr-03 21:48 330 1 gusting 7 24.4
2020-Apr-03 21:43 329 0 gusting 10 25.0
2020-Apr-03 21:38 331 2 gusting 10 23.9
2020-Apr-03 21:33 342 2 gusting 8 23.3
2020-Apr-03 21:28 355 4 gusting 8 23.3
2020-Apr-03 21:23 339 1 gusting 8 23.3
2020-Apr-03 21:18 337 4 gusting 8 23.9
2020-Apr-03 21:13 346 5 gusting 8 22.8
2020-Apr-03 21:08 241 1 gusting 7 27.8
2020-Apr-03 21:03 299 1 gusting 10 27.8
2020-Apr-03 20:58 327 3 gusting 10 27.8
2020-Apr-03 20:53 294 1 gusting 6 27.8
2020-Apr-03 20:48 296 2 gusting 8 27.8
2020-Apr-03 20:43 325 2 gusting 8 27.8
2020-Apr-03 20:38 345 2 gusting 7 27.8
2020-Apr-03 20:29 038 1 gusting 7 28.3
2020-Apr-03 20:23 033 6 gusting 7 28.3
2020-Apr-03 20:18 337 1 gusting 5 28.3
2020-Apr-03 20:13 216 0 gusting 4 28.3
2020-Apr-03 20:08 131 28.3
2020-Apr-03 20:03 353 4 gusting 7 28.3
2020-Apr-03 19:58 092 0 gusting 5 28.3
2020-Apr-03 19:53 150 28.3
2020-Apr-03 19:48 150 28.3
2020-Apr-03 19:43 001 28.3
2020-Apr-03 19:38 356 1 gusting 6 28.3
2020-Apr-03 19:33 089 2 gusting 6 28.3
2020-Apr-03 19:28 343 2 gusting 6 28.3
2020-Apr-03 19:23 087 2 gusting 6 28.9
2020-Apr-03 19:18 039 1 gusting 5 28.3
2020-Apr-03 19:13 106 0 gusting 4 28.3
2020-Apr-03 19:08 049 1 gusting 4 28.3
2020-Apr-03 19:03 058 0 gusting 4 28.3
2020-Apr-03 18:58 092 28.3
2020-Apr-03 18:53 164 0 gusting 4 28.3
2020-Apr-03 18:48 066 28.3
2020-Apr-03 18:43 106 0 gusting 4 28.3
2020-Apr-03 18:38 226 0 gusting 5 28.3
2020-Apr-03 18:33 141 0 gusting 5 28.3
2020-Apr-03 18:28 176 0 gusting 2 27.8
2020-Apr-03 18:23 056 27.8
2020-Apr-03 18:18 056 27.8
2020-Apr-03 18:13 120 0 gusting 4 27.8
2020-Apr-03 18:08 157 1 gusting 4 27.8
2020-Apr-03 18:03 203 0 gusting 4 27.8
2020-Apr-03 17:58 099 0 gusting 4 27.8
2020-Apr-03 17:53 140 27.2
2020-Apr-03 17:48 270 0 gusting 6 27.2
2020-Apr-03 17:43 157 2 gusting 6 26.7
2020-Apr-03 17:38 147 0 gusting 6 26.7
2020-Apr-03 17:33 025 0 gusting 5 26.7
2020-Apr-03 17:28 151 0 gusting 6 26.7
2020-Apr-03 17:23 174 26.7
2020-Apr-03 17:18 176 1 gusting 6 26.7
2020-Apr-03 17:13 179 1 gusting 5 26.7
2020-Apr-03 17:08 192 1 gusting 5 26.1
2020-Apr-03 17:03 037 0 gusting 4 26.1
2020-Apr-03 16:58 174 1 gusting 6 26.1
2020-Apr-03 16:53 034 0 gusting 6 26.1
2020-Apr-03 16:48 147 0 gusting 4 26.1
2020-Apr-03 16:43 171 0 gusting 4 25.6
2020-Apr-03 16:38 149 0 gusting 5 25.6
2020-Apr-03 16:33 073 0 gusting 5 25.6
2020-Apr-03 16:28 178 0 gusting 5 25.6
2020-Apr-03 16:23 177 1 gusting 5 25.6
2020-Apr-03 16:18 181 25.6
2020-Apr-03 16:13 188 1 gusting 5 25.6
2020-Apr-03 16:08 171 0 gusting 5 25.0
2020-Apr-03 16:03 188 0 gusting 4 25.0
2020-Apr-03 15:58 188 0 gusting 5 25.0
2020-Apr-03 15:53 162 0 gusting 5 25.0
2020-Apr-03 15:48 141 0 gusting 5 24.4
2020-Apr-03 15:43 155 1 gusting 5 24.4
2020-Apr-03 15:38 167 1 gusting 4 24.4
2020-Apr-03 15:33 198 23.9
2020-Apr-03 15:28 168 1 gusting 6 23.9
2020-Apr-03 15:23 134 23.9
2020-Apr-03 15:18 162 0 gusting 5 23.3
2020-Apr-03 15:13 154 1 gusting 5 23.3
2020-Apr-03 15:08 168 23.3
2020-Apr-03 15:03 142 22.8
2020-Apr-03 14:58 181 0 gusting 5 22.8
2020-Apr-03 14:53 152 22.2
2020-Apr-03 14:48 157 0 gusting 6 22.2
2020-Apr-03 14:43 139 21.7
2020-Apr-03 14:38 104 21.7
2020-Apr-03 14:33 051 21.7
2020-Apr-03 14:28 128 21.1
2020-Apr-03 14:23 179 21.1
2020-Apr-03 14:18 165 0 gusting 4 20.6
2020-Apr-03 14:13 168 20.6
2020-Apr-03 14:08 150 20.0
2020-Apr-03 14:03 163 0 gusting 2 20.0
2020-Apr-03 13:58 073 20.0
2020-Apr-03 13:53 073 19.4
2020-Apr-03 13:48 073 19.4
2020-Apr-03 13:43 073 19.4
2020-Apr-03 13:38 073 19.4
2020-Apr-03 13:33 073 18.9
2020-Apr-03 13:28 073 18.9
2020-Apr-03 13:23 073 18.9
2020-Apr-03 13:18 073 18.9
2020-Apr-03 13:13 073 18.9
2020-Apr-03 13:08 073 18.3
2020-Apr-03 13:03 073 18.3
2020-Apr-03 12:58 073 18.3
2020-Apr-03 12:53 073 18.3
2020-Apr-03 12:48 073 18.3
2020-Apr-03 11:33 073 16.1
2020-Apr-03 11:28 073 16.1
2020-Apr-03 11:23 073 16.1
2020-Apr-03 11:18 073 16.1
2020-Apr-03 11:13 073 16.1
2020-Apr-03 11:08 073 15.6
2020-Apr-03 11:03 073 15.6
2020-Apr-03 10:58 073 15.6
2020-Apr-03 10:53 073 15.6
2020-Apr-03 10:48 073 15.6
2020-Apr-03 10:38 073 15.6
2020-Apr-03 10:33 073 15.6
2020-Apr-03 10:28 073 15.6
2020-Apr-03 10:23 073 15.6
2020-Apr-03 10:18 073 15.6
2020-Apr-03 10:13 073 15.6
2020-Apr-03 10:08 073 15.6
2020-Apr-03 10:03 073 15.6
2020-Apr-03 09:58 073 16.1
2020-Apr-03 09:53 073 16.1
2020-Apr-03 09:48 073 16.1
2020-Apr-03 09:44 073 16.1
2020-Apr-03 09:38 073 16.1
2020-Apr-03 09:33 073 16.1
2020-Apr-03 09:28 073 16.1
2020-Apr-03 09:23 073 16.1
2020-Apr-03 09:18 073 16.1
2020-Apr-03 09:13 073 16.1
2020-Apr-03 09:08 073 16.1
2020-Apr-03 09:03 073 16.1
2020-Apr-03 08:58 073 16.7
2020-Apr-03 08:53 073 16.7
2020-Apr-03 08:48 073 16.7
2020-Apr-03 08:43 073 16.7
2020-Apr-03 08:38 073 16.7
2020-Apr-03 08:33 073 16.7
2020-Apr-03 08:28 073 16.7
2020-Apr-03 08:23 073 16.7
2020-Apr-03 08:18 073 16.7
2020-Apr-03 08:13 073 16.7
2020-Apr-03 08:08 073 17.2
2020-Apr-03 08:03 073 17.2
2020-Apr-03 07:58 073 17.2
2020-Apr-03 07:53 073 17.2
2020-Apr-03 07:48 073 17.2
2020-Apr-03 07:43 073 17.2
2020-Apr-03 07:38 073 17.2
2020-Apr-03 07:33 073 17.2
2020-Apr-03 07:28 073 17.8
2020-Apr-03 07:23 073 17.8
2020-Apr-03 07:18 073 17.8
2020-Apr-03 07:13 073 17.8
2020-Apr-03 07:08 073 17.8
2020-Apr-03 07:03 073 17.8
2020-Apr-03 06:58 073 17.8
2020-Apr-03 06:53 055 17.8
2020-Apr-03 06:48 356 17.2
2020-Apr-03 06:43 356 17.2
2020-Apr-03 06:38 356 17.2
2020-Apr-03 06:33 356 17.2
2020-Apr-03 06:28 356 17.2
2020-Apr-03 06:23 356 17.2
2020-Apr-03 06:18 356 17.2
2020-Apr-03 06:13 356 17.2
2020-Apr-03 06:08 356 17.2
2020-Apr-03 06:03 356 17.2
2020-Apr-03 05:58 356 17.2
2020-Apr-03 05:53 356 17.8
2020-Apr-03 05:48 356 17.8
2020-Apr-03 05:43 356 17.8
2020-Apr-03 05:38 356 17.8
2020-Apr-03 05:33 356 17.8
2020-Apr-03 05:28 356 17.8
2020-Apr-03 05:23 356 17.8
2020-Apr-03 05:18 356 17.8
2020-Apr-03 05:13 356 17.8
2020-Apr-03 05:08 356 18.3
2020-Apr-03 05:03 356 18.3
2020-Apr-03 04:58 356 18.3
2020-Apr-03 04:53 356 18.3
2020-Apr-03 04:48 356 18.3
2020-Apr-03 04:43 356 18.3
2020-Apr-03 04:38 356 18.3
2020-Apr-03 04:33 356 18.9
2020-Apr-03 04:28 356 18.9
2020-Apr-03 04:23 356 18.9
2020-Apr-03 04:18 356 18.9
2020-Apr-03 04:13 356 18.9
2020-Apr-03 04:08 356 18.9
2020-Apr-03 04:03 356 18.9
2020-Apr-03 03:58 356 19.4
2020-Apr-03 03:53 356 19.4
2020-Apr-03 03:48 356 19.4
2020-Apr-03 03:43 356 19.4
2020-Apr-03 03:38 356 19.4
2020-Apr-03 03:33 356 19.4
2020-Apr-03 03:28 356 19.4
2020-Apr-03 03:23 356 19.4
2020-Apr-03 03:18 356 19.4
2020-Apr-03 03:13 357 19.4
2020-Apr-03 03:08 357 19.4
2020-Apr-03 03:03 357 19.4
2020-Apr-03 02:58 357 19.4
2020-Apr-03 02:53 357 19.4
2020-Apr-03 02:48 357 19.4
2020-Apr-03 02:43 357 19.4
2020-Apr-03 02:38 357 19.4
2020-Apr-03 02:33 357 19.4
2020-Apr-03 02:28 357 19.4
2020-Apr-03 02:23 357 19.4
2020-Apr-03 02:18 357 19.4
2020-Apr-03 02:13 357 19.4
2020-Apr-03 02:08 357 19.4
2020-Apr-03 02:03 357 19.4
2020-Apr-03 01:58 357 19.4
2020-Apr-03 01:53 357 19.4
2020-Apr-03 01:48 357 19.4
2020-Apr-03 01:43 357 20.0
2020-Apr-03 01:38 357 20.0
2020-Apr-03 01:33 357 20.0
2020-Apr-03 01:28 357 20.0
2020-Apr-03 01:23 357 20.0
2020-Apr-03 01:18 357 20.0
2020-Apr-03 01:13 357 20.0
2020-Apr-03 01:08 357 20.0
2020-Apr-03 01:03 357 20.0
2020-Apr-03 00:58 357 20.0
2020-Apr-03 00:53 357 20.6
2020-Apr-03 00:48 339 20.6
2020-Apr-03 00:43 339 20.6
2020-Apr-03 00:38 339 20.6
2020-Apr-03 00:33 339 20.6
2020-Apr-03 00:28 339 20.6
2020-Apr-03 00:23 348 20.6
2020-Apr-03 00:18 349 20.6
2020-Apr-03 00:13 345 20.6
2020-Apr-03 00:08 322 0 gusting 6 20.6
2020-Apr-03 00:03 028 0 gusting 6 21.1
2020-Apr-02 23:58 21.1
2020-Apr-02 23:53 010 0 gusting 6 21.1
2020-Apr-02 23:48 321 1 gusting 6 21.1
2020-Apr-02 23:43 333 1 gusting 6 21.1
2020-Apr-02 23:38 338 2 gusting 8 21.1
2020-Apr-02 23:33 333 1 gusting 8 21.7
2020-Apr-02 23:28 333 4 gusting 8 21.7
2020-Apr-02 23:23 333 1 gusting 6 21.7
2020-Apr-02 23:18 348 2 gusting 8 21.7
2020-Apr-02 23:13 329 4 gusting 8 21.7
2020-Apr-02 23:08 337 4 gusting 8 22.2
2020-Apr-02 23:03 332 3 gusting 8 22.2
2020-Apr-02 22:58 340 3 gusting 8 22.2
2020-Apr-02 22:53 338 3 gusting 8 22.8
2020-Apr-02 22:48 009 2 gusting 7 22.8
2020-Apr-02 22:43 356 1 gusting 6 22.8
2020-Apr-02 22:38 327 2 gusting 6 22.8
2020-Apr-02 22:33 332 2 gusting 6 22.8
2020-Apr-02 22:28 318 3 gusting 6 23.3
2020-Apr-02 22:23 345 2 gusting 6 23.3
2020-Apr-02 22:18 23.3